STARLINK-35272, 65899

Orbit data source: Space-Track

STARLINK-35272, 65899 is a payload satellite owned by SpaceX/Seattle (US) in LEO that was launched on Tue, 07 Oct 2025 UTC via an FALCON 9 launch vehicle from the Air Force Eastern Test Range (AFETR). Payload-class satellites include a variety of spacecraft equipped with specific instruments for various scientific and technological missions. These include communications satellites like Starlink; space stations such as the ISS; scientific satellites like the Hubble; Earth observation satellites from companies like Planet Labs, Umbra, and HawkEye 360; GPS; miniature CubeSats for education and research; and military/defense satellites.

Loading next visibility...
Identifier
65899, 2025-224T
Orbit
LEO
Country
Flag of USUS
Related business
Manufacturer
SpaceX/Seattle
Mission
Operational spacecraft
Bus & Motor
STARLINK V2MO, Unknown motor
Mass
575 kg wet, ~530 kg dry
Launch date (UTC)
2025-10-07 (2 months ago)
Launch vehicle
FALCON 9
Launch site
Air Force Eastern Test Range (AFETR)
Object type
Payload
Rocket body
Debris
Shape & HBR
Unknown shape, 17.7 m
Radar Cross Section
RCS unknown

Expand to show TLE details & history
Last TLE update: 15 hours ago

TLE from 15 hours ago
0 STARLINK-35272
1 65899U 25224T   25340.58689654  .00085689  00000-0  28648-2 0  9993
2 65899  53.1611  83.5223 0002137 106.5555 253.5681 15.30281349 10613
Epoch: 2025-12-06T14:05Z
TLE epoch observation values (Epoch: 2025-12-06T14:05:07.861Z)
Latitude
0.00003°
Longitude
156.62707°
Altitude
476.287 km
Speed
7.629 km/s
True Right ascension
05h 34m 05s
True Declination
0° 00' 00"
Sunlit
Object was in full shadow at epoch
Visualization orbit readout
Latitude
Unknown
Longitude
Unknown
Altitude
Unknown
Speed
Unknown
Apparent Right ascension
Unknown
Apparent Declination
Unknown
Sunlit
N/A
Visualization observer readout
Local Sidereal Time
03:10:49
Azimuth
Unknown
Elevation
Unknown
Doppler factor
Unknown
Orbital elements
Apogee altitude
476.693 km
Perigee altitude
473.764 km
Semi-major axis
6,853.365 km
Eccentricity
0.00021
Inclination
53.1611°
RAAN
83.5223°
Arg. of periapsis
106.5555°
True anomaly
253.54461°
Mean anomaly
253.5681°
Eccentric anomaly
253.55636°
Mean motion
3.82549 °/min
Orbital period
94.11 mins
BSTAR
0.0028648
Loading maneuver chart data...
Computing Atmospheric mass density...
Loading historical data...
Loading historical data...
Loading historical data...
Loading historical data...
Loading historical data...
Loading historical data...
Loading historical data...

Documentation

Showing up to 5 results
|